Starlink 2336

operational
NORAD ID: 47879 Int'l Des: 2021-021 Owner: SPXS Country: US Constellation: starlink
LEOCIRCULARSTARLINK_TYPE

Starlink 2336について

説明を読み込み中...

リアルタイム位置

3D地球を読み込み中...

次回通過

高度履歴

Altitude vs Time

uPlot chart will show altitude changes over time

軌道要素

1 47879U 21021V 25304.84267341 .00011798 00000-0 80935-3 0 9994
2 47879 53.0517 145.0324 0001704 88.3949 271.7235 15.06412586256738
Epoch: Oct 31, 2025 • Age: 8 hours

現在のステータス

高度 547.0 km
速度 7.59 km/s
衛星直下点 16.89°N, 51.75°E
打ち上げ日 Mar 14, 2021
運用期間 4.6 years
タイプ internet

技術仕様

分類 Payload
質量 260.00 kg
乾燥質量 248.00 kg
総質量 260.00 kg
長さ 0.20 m
直径 2.80 m
スパン 9.00 m
形状 Box + pan
製造者 SPXS
バスタイプ Starlink
フェーズステータス In Orbit
所有者/国 SPXS/US

大規模コンステレーション

Loading constellations...